FW6618 Weather Reports


Display with metric or nautical units.
time (UTC)temp
F
wind
direction
speed
MPH
gust
MPH
rain 1hr
in
rain 24hr
in
rain mn
in
humidity
%
barometer
mb
20260831212525 71 0 0.0 1.0 0.00 0.04 0.00 83 1020.4
20260831212028 71 0 0.0 1.0 0.00 0.04 0.00 83 1020.4
20260831211542 71 0 0.0 1.0 0.00 0.04 0.00 83 1020.4
20260831211024 71 0 0.0 1.0 0.00 0.04 0.00 82 1020.5
20260831210524 71 0 0.0 1.0 0.00 0.04 0.00 81 1020.5
20260831210047 71 296 0.0 1.0 0.00 0.04 0.00 82 1020.4
20260831205523 71 0 0.0 1.0 0.00 0.04 0.00 81 1020.5
20260831205027 72 296 0.0 1.0 0.00 0.04 0.00 80 1020.5
20260831204553 72 296 0.0 1.0 0.00 0.04 0.00 81 1020.6
20260831204026 73 294 0.0 1.0 0.00 0.04 0.00 78 1020.5
20260831203522 73 295 0.0 1.0 0.00 0.04 0.00 79 1020.5
20260831203057 74 295 0.0 3.0 0.00 0.04 0.00 80 1020.5
20260831202525 74 295 0.0 3.0 0.00 0.04 0.00 77 1020.5
20260831202027 74 270 1.0 3.0 0.00 0.04 0.00 72 1020.5
20260831201541 75 276 1.0 3.0 0.00 0.04 0.00 68 1020.5
20260831201026 75 283 1.0 3.0 0.00 0.04 0.00 73 1020.5
20260831200526 75 320 1.0 3.0 0.00 0.04 0.00 67 1020.6
20260831200044 75 265 0.0 1.0 0.00 0.04 0.00 74 1020.5
20260831195524 76 131 0.0 3.0 0.00 0.04 0.00 72 1020.6
20260831195025 76 131 0.0 4.0 0.00 0.04 0.00 70 1020.6
20260831194543 77 326 2.0 5.0 0.00 0.04 0.00 69 1020.7
20260831194024 77 148 2.0 6.0 0.00 0.04 0.00 63 1020.8
20260831193521 78 23 1.0 6.0 0.00 0.04 0.00 63 1020.7
20260831193042 77 166 1.0 4.0 0.00 0.04 0.00 69 1020.8
20260831192523 78 285 1.0 4.0 0.00 0.04 0.00 66 1020.8
20260831192019 78 319 2.0 4.0 0.00 0.04 0.00 66 1020.9
20260831191550 78 220 1.0 5.0 0.00 0.04 0.00 65 1020.9
20260831191019 78 174 2.0 5.0 0.00 0.04 0.00 64 1020.9
20260831190520 77 157 1.0 4.0 0.00 0.04 0.00 65 1020.9
20260831190042 78 290 1.0 3.0 0.00 0.04 0.00 66 1021.0
20260831185525 78 212 0.0 3.0 0.00 0.04 0.00 71 1021.0
20260831185021 76 266 1.0 4.0 0.00 0.04 0.00 65 1021.0
20260831184543 76 110 2.0 4.0 0.00 0.04 0.00 67 1021.2
20260831184028 76 158 1.0 4.0 0.00 0.04 0.00 71 1021.3
20260831183522 76 236 1.0 2.0 0.00 0.04 0.00 74 1021.4
20260831183042 75 153 0.0 1.0 0.00 0.04 0.00 75 1021.4
20260831182520 74 284 0.0 2.0 0.00 0.04 0.00 75 1021.5
20260831182018 75 246 0.0 2.0 0.00 0.04 0.00 75 1021.6
20260831181540 75 246 0.0 2.0 0.00 0.04 0.00 71 1021.7
20260831181019 76 0 0.0 2.0 0.00 0.04 0.00 66 1021.6
20260831180524 76 310 1.0 3.0 0.00 0.04 0.00 67 1021.8
20260831180038 76 173 1.0 3.0 0.00 0.04 0.00 69 1021.7
20260831175520 76 250 1.0 3.0 0.00 0.04 0.00 73 1021.6
20260831175024 76 188 0.0 3.0 0.00 0.04 0.00 72 1021.7
20260831174542 75 204 1.0 3.0 0.00 0.04 0.00 73 1021.7
20260831174023 74 0 0.0 3.0 0.00 0.04 0.00 74 1021.7
20260831173518 75 146 1.0 3.0 0.00 0.04 0.00 72 1021.7
20260831173052 75 203 0.0 2.0 0.00 0.04 0.00 72 1021.8
20260831172519 75 255 1.0 2.0 0.00 0.04 0.00 74 1021.8
20260831172023 75 119 1.0 4.0 0.00 0.04 0.00 73 1021.9
20260831171541 74 0 1.0 4.0 0.00 0.04 0.00 74 1021.9
20260831171024 74 91 1.0 4.0 0.00 0.04 0.00 74 1021.9
20260831170524 74 56 1.0 4.0 0.00 0.04 0.00 73 1021.9
20260831170043 74 57 1.0 3.0 0.00 0.04 0.00 73 1022.0
20260831165519 74 347 0.0 3.0 0.00 0.04 0.00 74 1022.1
20260831165020 74 56 2.0 3.0 0.00 0.04 0.00 73 1022.1
20260831164556 73 296 1.0 3.0 0.00 0.04 0.00 75 1022.4
20260831164019 72 194 1.0 3.0 0.00 0.04 0.00 77 1022.3
20260831163520 73 118 1.0 4.0 0.00 0.04 0.00 76 1022.5
20260831163043 72 212 1.0 5.0 0.00 0.04 0.00 77 1022.6
20260831162521 72 282 0.0 5.0 0.00 0.04 0.00 79 1022.6
20260831162019 72 298 1.0 5.0 0.00 0.04 0.00 73 1022.6
20260831161544 72 206 1.0 4.0 0.00 0.04 0.00 74 1022.5
20260831161023 72 132 1.0 4.0 0.00 0.04 0.00 78 1022.6
20260831160525 72 175 2.0 4.0 0.00 0.04 0.00 78 1022.5
20260831160042 72 128 1.0 3.0 0.00 0.04 0.00 80 1022.7
20260831155520 72 113 1.0 3.0 0.00 0.04 0.00 82 1022.8
20260831155018 71 168 1.0 3.0 0.00 0.04 0.00 84 1022.8
20260831154600 71 235 1.0 2.0 0.00 0.04 0.00 85 1022.7
20260831154018 70 169 1.0 2.0 0.00 0.04 0.00 84 1022.8
20260831153525 69 101 0.0 2.0 0.00 0.04 0.00 84 1022.8
20260831153043 69 288 1.0 2.0 0.00 0.04 0.00 84 1022.8
20260831152521 68 211 0.0 2.0 0.00 0.04 0.00 87 1022.8
20260831152024 68 281 0.0 2.0 0.00 0.04 0.00 87 1022.8
20260831151541 67 310 1.0 3.0 0.00 0.04 0.00 87 1023.0
20260831151019 67 0 0.0 3.0 0.00 0.04 0.00 89 1022.9
20260831150521 67 194 0.0 3.0 0.00 0.04 0.00 90 1022.8
20260831150041 66 268 0.0 2.0 0.00 0.04 0.00 92 1022.8
20260831145517 65 235 1.0 2.0 0.00 0.04 0.00 93 1022.9
20260831145022 65 247 0.0 2.0 0.00 0.04 0.00 93 1022.9
20260831144542 65 303 0.0 1.0 0.00 0.04 0.00 93 1023.0
20260831144021 65 248 0.0 1.0 0.00 0.04 0.00 94 1023.1
20260831143521 64 0 0.0 1.0 0.00 0.04 0.00 95 1023.2
20260831143042 63 146 0.0 2.0 0.00 0.04 0.00 96 1023.2
20260831142520 63 340 0.0 2.0 0.00 0.04 0.00 95 1023.1
20260831142018 63 297 0.0 2.0 0.00 0.04 0.00 95 1023.1
20260831141540 63 191 1.0 2.0 0.00 0.04 0.00 96 1023.1
20260831141019 62 293 0.0 2.0 0.00 0.04 0.00 96 1023.2
20260831140519 62 282 0.0 1.0 0.00 0.04 0.00 96 1023.1
20260831140039 62 22 0.0 2.0 0.00 0.04 0.00 97 1023.0
20260831135525 62 105 0.0 3.0 0.00 0.04 0.00 97 1023.0
20260831135025 62 218 0.0 3.0 0.00 0.04 0.00 97 1023.1
20260831134544 62 243 0.0 1.0 0.00 0.04 0.00 97 1023.1
20260831134020 62 0 0.0 3.0 0.00 0.04 0.00 98 1023.2
20260831133518 61 0 1.0 3.0 0.00 0.04 0.00 98 1023.0
20260831133041 61 0 0.0 3.0 0.00 0.04 0.00 98 1023.1
20260831132524 61 190 1.0 3.0 0.00 0.04 0.00 98 1023.1
20260831132018 61 84 1.0 2.0 0.00 0.04 0.00 98 1023.1
20260831131538 61 225 0.0 1.0 0.00 0.04 0.00 98 1023.2
20260831131104 60 0 0.0 1.0 0.00 0.04 0.00 98 1023.1
20260831130521 60 164 0.0 1.0 0.00 0.04 0.00 98 1023.2
20260831130046 60 116 0.0 1.0 0.00 0.04 0.00 98 1023.1
20260831125523 60 0 0.0 1.0 0.00 0.04 0.00 98 1023.1
20260831125026 60 0 0.0 1.0 0.00 0.04 0.00 98 1023.1
20260831124552 60 117 0.0 1.0 0.00 0.04 0.00 98 1023.0
20260831124023 60 0 0.0 1.0 0.00 0.04 0.00 98 1023.0
20260831123522 60 0 0.0 0.0 0.00 0.04 0.00 98 1023.0
20260831123046 60 0 0.0 0.0 0.00 0.04 0.00 98 1023.1
20260831122528 60 0 0.0 0.0 0.00 0.04 0.00 98 1022.9
20260831122024 60 0 0.0 0.0 0.00 0.04 0.00 98 1022.9
20260831121542 60 0 0.0 0.0 0.00 0.04 0.00 98 1023.0
20260831121024 60 0 0.0 0.0 0.00 0.04 0.00 98 1023.0
20260831120528 60 0 0.0 0.0 0.00 0.04 0.00 98 1023.1
20260831120047 60 0 0.0 0.0 0.00 0.04 0.00 98 1023.1
20260831115522 60 0 0.0 0.0 0.00 0.04 0.00 98 1023.0
20260831115024 59 0 0.0 0.0 0.00 0.04 0.00 98 1023.0
20260831114549 59 0 0.0 0.0 0.00 0.04 0.00 98 1023.0
20260831114025 59 0 0.0 0.0 0.00 0.04 0.00 98 1023.0
20260831113521 59 0 0.0 0.0 0.00 0.04 0.00 98 1022.9
20260831113046 59 0 0.0 0.0 0.00 0.04 0.00 98 1022.8
20260831112518 58 0 0.0 0.0 0.00 0.04 0.00 98 1022.6
20260831112023 58 0 0.0 0.0 0.00 0.04 0.00 98 1022.6
20260831111541 58 0 0.0 0.0 0.00 0.04 0.00 98 1022.6
20260831111024 58 0 0.0 0.0 0.00 0.04 0.00 98 1022.6
20260831110523 58 0 0.0 0.0 0.00 0.04 0.00 98 1022.4
20260831110045 58 0 0.0 0.0 0.00 0.04 0.00 98 1022.3
20260831105522 57 0 0.0 0.0 0.00 0.04 0.00 98 1022.3
20260831105023 57 0 0.0 0.0 0.00 0.04 0.00 98 1022.3
20260831104554 57 0 0.0 0.0 0.00 0.04 0.00 98 1022.3
20260831104027 57 0 0.0 0.0 0.00 0.04 0.00 98 1022.3
20260831103522 57 0 0.0 0.0 0.00 0.04 0.00 98 1022.2
20260831103043 57 0 0.0 0.0 0.00 0.04 0.00 97 1022.3
20260831102524 57 0 0.0 0.0 0.00 0.04 0.00 97 1022.3
20260831102023 57 0 0.0 0.0 0.00 0.04 0.00 97 1022.3
20260831101545 57 0 0.0 0.0 0.00 0.04 0.00 97 1022.2
20260831101021 57 0 0.0 0.0 0.00 0.04 0.00 97 1022.2
20260831100519 57 0 0.0 0.0 0.00 0.04 0.00 97 1022.3
20260831100045 57 0 0.0 0.0 0.00 0.04 0.00 97 1022.3
20260831095521 57 0 0.0 0.0 0.00 0.04 0.00 97 1022.2
20260831095019 57 0 0.0 0.0 0.00 0.04 0.00 97 1022.2
20260831094547 58 0 0.0 0.0 0.00 0.04 0.00 97 1022.1
20260831094023 58 0 0.0 0.0 0.00 0.04 0.00 98 1022.1
20260831093528 58 0 0.0 0.0 0.00 0.04 0.00 98 1022.1
20260831093050 58 0 0.0 0.0 0.00 0.04 0.00 98 1022.1
20260831092522 58 0 0.0 0.0 0.00 0.04 0.00 98 1022.0
20260831092020 58 0 0.0 0.0 0.00 0.04 0.00 98 1022.0
20260831091540 58 0 0.0 0.0 0.00 0.04 0.00 98 1022.1
20260831091026 58 0 0.0 0.0 0.00 0.04 0.00 98 1022.1
20260831090519 58 0 0.0 0.0 0.00 0.04 0.00 97 1022.0
20260831090046 58 0 0.0 0.0 0.00 0.04 0.00 97 1022.1
20260831085525 58 0 0.0 0.0 0.00 0.04 0.00 97 1022.1
20260831085024 58 0 0.0 0.0 0.00 0.04 0.00 97 1021.9
20260831084546 58 0 0.0 0.0 0.00 0.04 0.00 97 1021.9
20260831084026 58 0 0.0 0.0 0.00 0.04 0.00 97 1021.9
20260831083523 58 0 0.0 0.0 0.00 0.04 0.00 97 1021.7
20260831083050 59 0 0.0 0.0 0.00 0.04 0.00 97 1021.7
20260831082523 59 0 0.0 0.0 0.00 0.04 0.00 97 1021.6
20260831082020 59 0 0.0 0.0 0.00 0.04 0.00 97 1021.7
20260831081545 59 0 0.0 0.0 0.00 0.04 0.00 97 1021.5
20260831081026 59 0 0.0 0.0 0.00 0.04 0.00 98 1021.6
20260831080526 59 0 0.0 0.0 0.00 0.04 0.00 97 1021.7
20260831080046 59 0 0.0 0.0 0.00 0.04 0.00 97 1021.6
20260831075524 60 0 0.0 0.0 0.00 0.04 0.00 97 1021.6
20260831075023 60 0 0.0 0.0 0.00 0.04 0.00 97 1021.5
20260831074547 60 0 0.0 0.0 0.00 0.04 0.00 98 1021.6
20260831074027 60 0 0.0 0.0 0.00 0.04 0.00 98 1021.5
20260831073524 60 0 0.0 0.0 0.00 0.04 0.00 97 1021.3
20260831073054 60 0 0.0 0.0 0.00 0.04 0.00 98 1021.4
20260831072524 60 0 0.0 0.0 0.00 0.04 0.00 97 1021.3
20260831072020 60 0 0.0 0.0 0.00 0.04 0.00 97 1021.4
20260831071542 60 0 0.0 0.0 0.00 0.04 0.00 97 1021.4
20260831071025 60 0 0.0 0.0 0.00 0.04 0.00 97 1021.4
20260831070521 60 0 0.0 0.0 0.00 0.04 0.00 97 1021.4
20260831070052 60 0 0.0 0.0 0.00 0.04 0.00 97 1021.5
20260831065526 60 0 0.0 0.0 0.00 0.04 0.00 97 1021.5
20260831065025 60 0 0.0 0.0 0.00 0.04 0.00 97 1021.4
20260831064544 60 0 0.0 0.0 0.00 0.04 0.00 97 1021.5
20260831064021 61 0 0.0 0.0 0.00 0.04 0.00 97 1021.4
20260831063521 61 0 0.0 0.0 0.00 0.04 0.00 97 1021.4
20260831063042 61 0 0.0 0.0 0.00 0.04 0.00 97 1021.4
20260831062525 61 0 0.0 0.0 0.00 0.04 0.00 97 1021.4
20260831062025 61 0 0.0 0.0 0.00 0.04 0.00 97 1021.4
20260831061539 61 0 0.0 0.0 0.00 0.04 0.00 97 1021.3
20260831061025 61 0 0.0 0.0 0.00 0.04 0.00 97 1021.4
20260831060528 61 0 0.0 0.0 0.00 0.04 0.00 97 1021.3
20260831060047 61 0 0.0 0.0 0.00 0.04 0.00 97 1021.4
20260831055523 61 0 0.0 0.0 0.00 0.04 0.00 97 1021.5
20260831055025 61 0 0.0 0.0 0.00 0.04 0.00 97 1021.5
20260831054542 61 0 0.0 0.0 0.00 0.04 0.00 97 1021.4
20260831054023 61 0 0.0 0.0 0.00 0.04 0.00 97 1021.4
20260831053524 61 0 0.0 0.0 0.00 0.04 0.00 97 1021.4
20260831053041 61 0 0.0 0.0 0.00 0.04 0.00 97 1021.3
20260831052523 61 0 0.0 0.0 0.00 0.04 0.00 97 1021.4
20260831052027 61 0 0.0 0.0 0.00 0.04 0.00 97 1021.4
20260831051544 61 0 0.0 0.0 0.00 0.04 0.00 97 1021.3
20260831051023 61 0 0.0 0.0 0.00 0.04 0.00 97 1021.4
20260831050520 61 0 0.0 0.0 0.00 0.04 0.00 97 1021.3
20260831050058 61 0 0.0 0.0 0.00 0.04 0.00 97 1021.3
20260831045520 61 0 0.0 0.0 0.00 0.04 0.00 97 1021.4
20260831045023 61 0 0.0 0.0 0.00 0.04 0.00 97 1021.3
20260831044601 61 0 0.0 0.0 0.00 0.04 0.00 97 1021.4
20260831044025 61 335 0.0 0.0 0.00 0.04 0.00 97 1021.4
20260831043519 61 0 0.0 0.0 0.00 0.04 0.00 97 1021.3
20260831043041 61 0 0.0 0.0 0.00 0.04 0.00 97 1021.4
20260831042523 61 0 0.0 1.0 0.00 0.04 0.00 97 1021.4
20260831042023 61 0 0.0 1.0 0.00 0.04 0.00 97 1021.2
20260831041545 61 334 0.0 1.0 0.00 0.04 0.00 97 1021.2
20260831041023 61 0 0.0 0.0 0.00 0.04 0.00 97 1020.9
20260831040521 61 0 0.0 0.0 0.00 0.04 0.00 97 1021.1
20260831040049 61 0 0.0 0.0 0.00 0.04 0.00 97 1021.0
20260831035524 61 0 0.0 0.0 0.00 0.04 0.04 97 1020.9
20260831035024 61 0 0.0 0.0 0.00 0.04 0.04 97 1021.0
20260831034545 61 0 0.0 0.0 0.00 0.04 0.04 97 1021.0
20260831034103 62 0 0.0 0.0 0.00 0.04 0.04 97 1021.1
20260831033525 62 0 0.0 0.0 0.00 0.04 0.04 97 1021.1
20260831033042 62 0 0.0 0.0 0.00 0.04 0.04 97 1021.1
20260831032523 62 0 0.0 0.0 0.00 0.04 0.04 97 1021.3
20260831032019 62 0 0.0 1.0 0.00 0.04 0.04 97 1021.4
20260831031546 62 0 0.0 2.0 0.00 0.04 0.04 97 1021.4
20260831031024 62 334 0.0 2.0 0.00 0.04 0.04 97 1021.4
20260831030526 62 0 0.0 1.0 0.00 0.04 0.04 97 1021.2
20260831030055 62 77 0.0 1.0 0.00 0.04 0.04 97 1021.1
20260831025524 62 0 0.0 0.0 0.00 0.04 0.04 97 1021.0
20260831025024 62 0 0.0 0.0 0.00 0.04 0.04 97 1021.2
20260831024608 62 0 0.0 0.0 0.00 0.04 0.04 97 1021.4
20260831024024 62 0 0.0 0.0 0.00 0.04 0.04 97 1021.3
20260831023520 62 0 0.0 0.0 0.00 0.04 0.04 97 1021.2
20260831023040 62 0 0.0 0.0 0.00 0.04 0.04 97 1021.2
20260831022522 62 0 0.0 0.0 0.00 0.04 0.04 97 1021.0
20260831022019 63 0 0.0 0.0 0.00 0.04 0.04 97 1021.0
20260831021543 63 0 0.0 0.0 0.00 0.04 0.04 97 1020.9
20260831021025 63 0 0.0 0.0 0.00 0.04 0.04 97 1020.8
20260831020525 63 0 0.0 0.0 0.00 0.04 0.04 97 1020.8
20260831020104 63 0 0.0 0.0 0.00 0.04 0.04 97 1020.7
20260831015519 63 0 0.0 0.0 0.00 0.04 0.04 97 1020.7
20260831015019 63 0 0.0 0.0 0.00 0.04 0.04 97 1020.8
20260831014558 63 0 0.0 1.0 0.00 0.04 0.04 97 1020.7
20260831014019 63 0 0.0 1.0 0.00 0.04 0.04 97 1020.7
20260831013523 64 49 0.0 1.0 0.00 0.04 0.04 97 1020.8
20260831013041 64 272 0.0 1.0 0.00 0.04 0.04 97 1020.7
20260831012524 64 0 0.0 2.0 0.00 0.04 0.04 97 1020.7
20260831012023 64 132 0.0 2.0 0.00 0.04 0.04 97 1020.7
20260831011538 64 293 0.0 2.0 0.00 0.04 0.04 97 1020.6
20260831011023 64 0 1.0 2.0 0.00 0.04 0.04 97 1020.6
20260831010524 64 0 0.0 1.0 0.00 0.04 0.04 96 1020.5
20260831010048 64 0 0.0 1.0 0.00 0.04 0.04 96 1020.4
20260831005519 64 285 0.0 3.0 0.00 0.04 0.04 96 1020.4
20260831005019 64 305 0.0 3.0 0.00 0.04 0.04 96 1020.4
20260831004542 64 156 0.0 2.0 0.00 0.04 0.04 97 1020.2
20260831004020 64 330 0.0 3.0 0.00 0.04 0.04 96 1020.2
20260831003528 64 330 1.0 3.0 0.01 0.04 0.04 96 1020.1
20260831003040 64 238 1.0 3.0 0.01 0.04 0.04 96 1020.1
20260831002524 64 0 0.0 0.0 0.01 0.04 0.04 96 1020.0
20260831002023 64 0 0.0 0.0 0.01 0.04 0.04 96 1019.8
20260831001552 64 0 0.0 0.0 0.01 0.04 0.04 96 1019.7
20260831001020 64 0 0.0 1.0 0.01 0.04 0.04 96 1019.6
20260831000521 65 0 0.0 1.0 0.01 0.04 0.04 96 1019.6
20260831000043 65 0 0.0 1.0 0.01 0.04 0.04 95 1019.6
20260830235529 65 328 0.0 3.0 0.01 0.04 0.04 95 1019.5
20260830235032 65 347 2.0 4.0 0.02 0.04 0.04 95 1019.5
20260830234605 65 281 0.0 4.0 0.02 0.04 0.04 95 1019.5
20260830234023 65 86 1.0 4.0 0.02 0.04 0.04 95 1019.5
20260830233527 65 0 0.0 1.0 0.01 0.03 0.03 95 1019.4
20260830233044 65 283 0.0 4.0 0.02 0.03 0.03 95 1019.4
20260830232526 65 0 1.0 4.0 0.02 0.03 0.03 95 1019.3
20260830232024 66 328 0.0 5.0 0.02 0.03 0.03 95 1019.1
20260830231544 66 278 0.0 5.0 0.02 0.03 0.03 94 1019.0
20260830231020 66 165 1.0 3.0 0.02 0.03 0.03 93 1019.2
20260830230519 66 244 1.0 4.0 0.03 0.03 0.03 91 1019.2
20260830230042 67 74 1.0 5.0 0.03 0.03 0.03 91 1019.4
20260830225520 67 316 2.0 5.0 0.03 0.03 0.03 91 1019.4
20260830225026 67 278 0.0 4.0 0.02 0.02 0.02 93 1019.5
20260830224549 67 330 2.0 4.0 0.02 0.02 0.02 90 1019.4
20260830224024 67 128 1.0 3.0 0.02 0.02 0.02 92 1019.4
20260830223524 67 345 1.0 3.0 0.02 0.02 0.02 92 1019.3
20260830223045 68 345 0.0 3.0 0.01 0.01 0.01 90 1019.4
20260830222520 68 352 1.0 3.0 0.01 0.01 0.01 88 1019.3
20260830222024 68 89 1.0 5.0 0.01 0.01 0.01 87 1019.3
20260830221541 69 127 1.0 5.0 0.01 0.01 0.01 85 1019.3
20260830221017 69 116 2.0 5.0 0.01 0.01 0.01 85 1019.2
20260830220517 70 15 0.0 3.0 0.00 0.00 0.00 85 1019.2
20260830220044 70 56 0.0 2.0 0.00 0.00 0.00 84 1019.2
20260830215518 70 196 0.0 2.0 0.00 0.00 0.00 84 1019.1
20260830215025 70 275 0.0 2.0 0.00 0.00 0.00 83 1019.1
20260830214544 71 0 0.0 2.0 0.00 0.00 0.00 82 1019.2
20260830214023 71 241 0.0 2.0 0.00 0.00 0.00 82 1019.0
20260830213519 71 0 0.0 1.0 0.00 0.00 0.00 80 1019.0
20260830213044 72 313 0.0 1.0 0.00 0.00 0.00 82 1019.1